Flag for Switzerland Weather past 2 weeks in Köniz, Bern, Switzerland

Now
43 °F

Clear.


Feels Like: 40 °F
Forecast: 46 / 66 °F
Wind: 5 mph from Southeast

Location: Bern / Belp

Current Time: Sep 2, 2014 at 5:26:07 AM

Latest Report: Sep 2, 2014 at 4:50 AM


Visibility: 10 mi

Pressure: 30.12 "Hg

Humidity: 100%

Dew point: 43 °F

Location of KönizLocation

Historic Weather in Köniz — Graph

°F

Köniz temperature yesterday

Maximum temperature yesterday: 64 °F (at 2:20 PM)
Minimum temperature yesterday: 46 °F (at 11:50 PM)
Average temperature yesterday: 57 °F

Past Weeks' High & Low Weather Summary

 TemperatureHumidityPressure
High77 °F (Aug 28, 4:50 PM)100% (Aug 18, 6:20 AM)30.18 "Hg (Aug 18, 6:20 AM)
Low43 °F (Sep 2, 4:20 AM)31% (Aug 18, 5:50 PM)29.80 "Hg (Aug 26, 5:50 AM)
Average60 °F80%30.03 "Hg
* Reported Aug 18 4:20 AM — Sep 2 4:20 AM, Köniz, Weather by CustomWeather, © 2014

Note: Actual official high and low records may vary slightly from our data, if they occured in-between our weather recording intervals... More about our weather records

Advertising

Köniz weather history for previous 24 hours

 ConditionsComfort  
Time TempWeatherWind HumidityBarometerVisibility
4:20 AM
Sep 2
43 °FQuite cool.2 mph100%30.12 "Hg6 mi
3:50 AM45 °FClear.2 mph93%30.12 "Hg10 mi
3:20 AM45 °FQuite cool.2 mph93%30.12 "HgN/A
2:50 AM45 °FClear.2 mph100%30.12 "Hg10 mi
2:20 AM45 °FClear.2 mph100%30.12 "Hg10 mi
1:50 AM45 °FClear.2 mph100%30.12 "Hg10 mi
1:20 AM45 °FPassing clouds.3 mph100%30.12 "HgN/A
12:50 AM46 °FClear.1 mph93%30.12 "Hg10 mi
12:20 AM48 °FCool.1 mph94%30.15 "HgN/A
11:50 PM
Sep 1
46 °FClear.2 mph100%30.15 "Hg10 mi
11:20 PM48 °FClear.2 mph94%30.15 "Hg10 mi
10:20 PM50 °FCool.1 mph94%30.15 "HgN/A
9:50 PM52 °FClear.No wind94%30.15 "Hg10 mi
9:20 PM52 °FClear.No wind94%30.15 "Hg10 mi
8:50 PM54 °FSunny.1 mph88%30.15 "Hg10 mi
8:20 PM57 °FPassing clouds.3 mph72%30.12 "HgN/A
7:50 PM59 °FPassing clouds.3 mph68%30.12 "HgN/A
7:20 PM61 °FScattered clouds.7 mph63%30.12 "HgN/A
6:50 PM64 °FScattered clouds.3 mph60%30.12 "HgN/A
6:20 PM64 °FScattered clouds.6 mph56%30.12 "HgN/A
5:50 PM64 °FScattered clouds.8 mph56%30.12 "HgN/A
5:20 PM63 °FScattered clouds.3 mph59%30.12 "HgN/A
4:50 PM63 °FScattered clouds.8 mph64%30.12 "HgN/A
4:20 PM64 °FScattered clouds.6 mph56%30.12 "HgN/A
3:50 PM64 °FScattered clouds.8 mph56%30.12 "HgN/A
3:20 PM63 °FScattered clouds.3 mph56%30.12 "HgN/A
2:50 PM63 °FBroken clouds.6 mph59%30.12 "HgN/A
2:20 PM64 °FBroken clouds.5 mph56%30.12 "HgN/A
1:50 PM61 °FBroken clouds.5 mph63%30.12 "HgN/A
1:20 PM63 °FPartly sunny.3 mph68%30.12 "HgN/A
12:50 PM61 °FScattered clouds.3 mph68%30.12 "HgN/A
12:20 PM59 °FBroken clouds.6 mph72%30.12 "HgN/A
11:50 AM61 °FBroken clouds.2 mph77%30.12 "HgN/A
11:20 AM59 °FScattered clouds.6 mph77%30.12 "HgN/A
10:50 AM57 °FPartly sunny.5 mph77%30.12 "HgN/A
10:20 AM57 °FBroken clouds.2 mph82%30.12 "HgN/A
9:50 AM55 °FBroken clouds.1 mph88%30.12 "HgN/A
9:20 AM55 °FBroken clouds.1 mph94%30.12 "HgN/A
8:50 AM55 °FBroken clouds.No wind94%30.12 "HgN/A
8:20 AM54 °FPartly sunny.1 mph100%30.09 "HgN/A
7:50 AM54 °FPartly sunny.2 mph94%30.09 "HgN/A
7:20 AM54 °FPassing clouds.No wind94%30.09 "HgN/A
6:50 AM54 °FPartly cloudy.No wind94%30.09 "HgN/A
6:20 AM52 °FMostly cloudy.2 mph100%30.09 "HgN/A
5:50 AM54 °FSprinkles. Partly cloudy.2 mph94%30.09 "HgN/A
5:20 AM54 °FPartly cloudy.2 mph94%30.09 "HgN/A
Weather by CustomWeather, © 2014

See weather overviewHow to use our weather pages